Temp
17 16 16 15 15 15 15 15 14 14 14 14 14 13 13 13 12 12 11 12 12 12 12 11 10 10 9 9 8 8 7 7 7 8 9 10 11 11 10 11 11 11 10
17 17 16 15 15 15 14 14 15 14 14 14 13 13 13 12 12 11 12 11 12 12 12 11 10 10 9 8 8 8 7 7 7 7 9 10 10 10 10 10 10 10 10
18 17 16 15 15 14 14 14 14 14 14 13 13 13 13 12 12 12 11 11 11 11 11 10 10 10 9 8 8 7 7 7 7 7 10 10 10 10 11 10 10 10 10
18 18 17 16 15 14 14 14 14 13 13 13 13 13 13 12 12 12 11 11 11 11 12 10 9 10 8 8 8 7 7 7 7 7 9 10 10 10 10 10 10 10 10
17 17 17 16 15 14 14 14 13 13 13 13 13 12 12 12 12 12 11 11 11 12 11 11 10 8 8 8 8 8 7 7 7 8 10 10 10 10 10 10 10 10 10
16 16 16 15 15 14 14 13 13 13 12 12 12 12 12 11 12 11 11 11 11 11 11 11 10 9 8 8 8 8 7 7 7 7 10 10 10 10 10 10 10 9 9
16 16 16 15 14 14 14 14 13 13 12 11 11 11 11 11 11 11 10 10 10 11 11 10 10 9 8 8 7 8 7 7 7 8 10 10 10 10 10 9 9 9 9
18 17 16 15 14 14 14 14 14 13 12 12 11 11 10 10 10 10 10 10 10 10 10 10 9 9 9 8 8 8 7 7 7 8 10 10 10 10 9 9 9 9 9
17 16 16 15 15 14 14 14 14 15 14 13 12 11 10 10 10 10 10 10 10 10 10 10 10 8 9 8 8 7 7 7 7 9 10 9 9 9 9 9 8 8 8
16 16 15 15 15 14 14 14 14 15 14 14 12 11 11 12 10 9 9 10 10 10 10 10 10 9 8 8 8 8 7 7 7 7 9 9 9 9 9 8 8 8 8
15 15 14 14 14 14 14 13 14 13 14 14 14 13 11 11 11 11 10 11 11 10 10 10 10 10 9 9 9 8 8 7 7 7 7 8 8 8 8 8 8 7 7
15 15 14 14 13 13 13 13 13 13 13 14 14 13 14 12 11 11 11 11 12 10 10 10 9 9 9 9 9 9 9 8 8 7 7 8 8 8 8 7 7 7 8
15 14 14 13 13 13 13 13 13 13 13 13 13 13 13 13 13 13 11 11 10 9 9 10 10 10 10 9 9 9 9 9 8 8 7 7 8 8 7 7 7 8 8
14 14 13 13 13 13 13 13 13 13 13 13 13 13 13 13 13 12 12 10 9 9 9 10 10 9 9 10 9 9 9 8 8 8 7 7 7 7 7 7 7 8 7
12 12 12 13 12 12 12 13 12 13 13 13 13 13 13 12 12 12 11 11 11 9 8 9 10 10 10 10 9 9 9 8 8 8 8 7 7 7 7 7 7 7 7
11 11 12 12 12 12 12 12 12 12 12 12 13 13 12 12 12 11 11 10 10 9 9 9 10 10 10 9 9 9 9 8 8 8 8 8 8 8 7 7 7 7 6
10 10 11 12 12 12 12 12 12 12 12 12 12 12 12 12 11 11 11 10 10 9 9 8 9 9 9 9 9 9 9 8 8 8 8 8 8 8 7 7 7 7 7
10 10 10 11 11 12 12 12 12 12 11 11 12 12 12 11 11 11 10 10 10 10 9 9 9 9 8 9 9 9 9 9 8 9 8 7 7 7 7 7 7 6 6
10 10 10 10 10 10 11 11 12 12 11 11 12 11 11 11 11 11 10 10 10 10 9 9 8 9 8 8 8 8 8 8 8 8 8 8 7 7 7 7 6 5 5
10 10 10 10 9 9 10 11 11 11 11 11 11 11 11 11 11 11 10 10 10 9 9 8 8 8 7 8 7 8 7 7 7 7 7 7 7 7 6 5 5 5 5
9 10 10 10 9 9 10 10 10 11 11 11 11 11 11 11 11 10 10 9 9 9 9 8 7 7 6 6 7 7 7 7 6 6 6 7 6 5 4 3 3 4 4
8 9 9 9 9 8 9 9 10 10 11 11 11 10 9 9 10 9 9 9 9 9 9 9 8 8 7 7 7 7 7 6 3 4 4 5 4 3 2 2 2 2 1
7 8 8 8 9 8 8 9 9 10 10 11 11 11 11 10 9 9 9 9 9 9 9 9 8 8 8 8 8 7 7 7 7 6 5 3 2 1 0 0 0 0 -1
6 7 7 8 8 9 9 8 9 10 10 10 10 10 11 10 10 9 9 9 9 8 9 9 9 9 9 8 9 9 8 7 5 4 4 1 0 -0 -0 -1 -2 -2 -2
5 5 6 6 7 9 9 8 9 9 10 9 10 10 10 9 10 8 9 9 9 9 9 9 9 8 8 8 8 6 6 5 2 2 2 1 -0 -1 -3 -2 -3 -4 -4
3 5 6 5 6 8 7 7 8 9 9 9 10 10 10 10 9 9 9 9 9 9 9 9 8 8 7 6 6 6 8 6 4 1 1 0 1 -0 -5 -6 -5 -5 -5
Height
1510 1514 1516 1518 1521 1525 1527 1529 1531 1533 1535 1537 1539 1540 1542 1544 1544 1547 1550 1551 1553 1555 1556 1558 1558 1560 1562 1563 1563 1565 1565 1566 1569 1570 1571 1573 1575 1576 1578 1580 1582 1584 1585
1507 1510 1513 1516 1518 1521 1524 1527 1529 1532 1533 1535 1536 1538 1539 1541 1542 1542 1547 1550 1552 1554 1556 1557 1557 1560 1561 1563 1564 1565 1566 1566 1568 1570 1571 1573 1575 1577 1579 1581 1582 1584 1585
1502 1506 1509 1513 1516 1518 1521 1523 1527 1529 1530 1532 1534 1535 1537 1538 1540 1542 1546 1549 1551 1552 1554 1555 1557 1558 1560 1561 1563 1565 1565 1566 1567 1569 1571 1574 1576 1578 1579 1581 1583 1584 1586
1497 1500 1504 1508 1512 1515 1517 1519 1522 1525 1527 1529 1531 1533 1534 1536 1539 1540 1543 1547 1549 1551 1552 1553 1555 1557 1559 1560 1562 1564 1565 1566 1567 1568 1571 1573 1576 1578 1579 1581 1583 1584 1585
1491 1494 1498 1502 1507 1510 1512 1515 1517 1520 1523 1525 1527 1530 1532 1534 1536 1538 1540 1544 1546 1548 1550 1551 1553 1555 1557 1559 1561 1563 1565 1566 1567 1567 1570 1572 1576 1577 1579 1580 1582 1584 1585
1487 1489 1492 1496 1501 1505 1507 1509 1512 1516 1517 1522 1524 1526 1529 1530 1532 1533 1535 1539 1543 1545 1547 1549 1550 1551 1554 1557 1559 1561 1564 1565 1565 1566 1568 1572 1574 1576 1578 1580 1581 1583 1584
1480 1483 1486 1489 1494 1497 1501 1505 1508 1510 1512 1516 1521 1522 1524 1526 1528 1529 1531 1534 1537 1541 1544 1545 1548 1550 1551 1554 1557 1560 1562 1564 1564 1565 1567 1571 1573 1575 1577 1578 1580 1582 1584
1473 1475 1480 1482 1487 1492 1495 1497 1499 1503 1506 1510 1515 1518 1520 1523 1523 1524 1527 1529 1532 1536 1539 1542 1544 1547 1549 1551 1554 1558 1560 1561 1562 1563 1566 1569 1572 1574 1575 1577 1579 1581 1582
1468 1470 1473 1475 1479 1484 1489 1490 1491 1496 1498 1503 1507 1512 1514 1516 1518 1519 1520 1524 1528 1531 1535 1538 1540 1543 1545 1548 1551 1555 1558 1559 1560 1561 1564 1567 1570 1571 1573 1575 1577 1579 1580
1465 1466 1468 1471 1473 1476 1480 1483 1486 1489 1491 1494 1500 1503 1506 1507 1511 1515 1516 1518 1522 1525 1529 1532 1535 1538 1541 1544 1547 1550 1554 1556 1557 1559 1561 1564 1567 1569 1571 1573 1575 1577 1578
1459 1462 1464 1464 1466 1468 1472 1475 1478 1481 1483 1487 1490 1495 1498 1501 1504 1508 1508 1511 1516 1518 1522 1526 1529 1533 1536 1540 1543 1546 1549 1551 1554 1556 1559 1562 1564 1567 1569 1571 1572 1574 1575
1452 1454 1456 1457 1459 1460 1464 1468 1472 1474 1476 1481 1483 1486 1488 1492 1495 1501 1504 1505 1507 1510 1514 1519 1523 1527 1531 1534 1537 1541 1545 1547 1549 1553 1556 1559 1562 1564 1566 1567 1569 1571 1572
1443 1446 1449 1450 1451 1453 1456 1460 1463 1466 1469 1472 1474 1479 1482 1484 1489 1492 1497 1500 1502 1504 1507 1511 1516 1520 1524 1528 1532 1536 1539 1543 1546 1549 1552 1555 1558 1560 1562 1564 1565 1567 1568
1437 1440 1440 1443 1445 1447 1450 1453 1456 1459 1461 1465 1468 1471 1475 1479 1482 1485 1489 1494 1496 1497 1499 1500 1506 1511 1516 1520 1525 1530 1533 1537 1541 1544 1548 1551 1553 1556 1557 1560 1561 1561 1562
1431 1432 1433 1436 1438 1440 1442 1446 1448 1451 1453 1457 1460 1464 1467 1472 1475 1479 1482 1486 1489 1491 1491 1493 1497 1504 1508 1512 1518 1522 1526 1530 1534 1538 1541 1545 1548 1551 1553 1555 1556 1556 1558
1426 1427 1428 1430 1431 1433 1435 1438 1441 1443 1447 1449 1452 1456 1460 1464 1468 1471 1475 1479 1481 1483 1485 1486 1489 1493 1499 1505 1511 1515 1520 1524 1528 1532 1536 1539 1542 1545 1547 1548 1549 1551 1552
1421 1422 1422 1423 1424 1426 1428 1430 1433 1435 1437 1441 1445 1448 1453 1457 1460 1462 1466 1470 1473 1476 1477 1477 1482 1483 1490 1497 1503 1508 1512 1517 1521 1526 1530 1534 1537 1538 1540 1542 1543 1545 1546
1415 1414 1415 1416 1417 1419 1422 1423 1425 1426 1430 1432 1436 1441 1444 1449 1452 1455 1458 1461 1464 1467 1471 1466 1471 1473 1481 1485 1493 1500 1504 1509 1514 1518 1523 1527 1530 1532 1533 1534 1536 1538 1540
1411 1410 1411 1411 1410 1412 1413 1415 1417 1419 1422 1425 1429 1433 1437 1441 1444 1447 1451 1454 1456 1457 1459 1458 1461 1466 1467 1472 1479 1490 1495 1500 1505 1511 1515 1519 1522 1524 1526 1528 1530 1531 1534
1405 1405 1405 1405 1405 1405 1406 1408 1410 1413 1415 1418 1422 1426 1430 1433 1437 1441 1444 1446 1448 1449 1448 1450 1454 1455 1459 1463 1470 1477 1486 1491 1496 1502 1507 1510 1514 1517 1519 1521 1523 1524 1526
1400 1399 1398 1396 1396 1398 1399 1401 1403 1405 1409 1411 1415 1418 1421 1425 1429 1432 1436 1438 1440 1442 1442 1443 1445 1447 1449 1453 1457 1466 1474 1481 1488 1493 1497 1501 1506 1510 1511 1514 1516 1518 1519
1394 1393 1392 1390 1390 1391 1392 1395 1396 1397 1400 1404 1407 1409 1413 1417 1421 1424 1426 1429 1431 1432 1434 1433 1435 1437 1440 1446 1450 1455 1462 1471 1477 1482 1486 1492 1498 1502 1505 1508 1509 1510 1512
1389 1387 1386 1384 1383 1384 1385 1387 1389 1390 1392 1393 1398 1401 1404 1408 1412 1416 1419 1420 1422 1423 1424 1425 1426 1428 1431 1436 1442 1446 1451 1459 1465 1471 1479 1484 1491 1495 1498 1501 1502 1505 1507
1383 1381 1380 1378 1377 1377 1377 1379 1381 1382 1384 1386 1389 1395 1399 1401 1403 1407 1412 1413 1413 1415 1417 1418 1419 1423 1425 1426 1430 1432 1439 1450 1459 1463 1469 1474 1481 1487 1492 1494 1498 1500 1502
1378 1377 1375 1372 1370 1370 1370 1371 1373 1372 1374 1379 1381 1382 1392 1394 1396 1399 1405 1406 1407 1407 1410 1412 1413 1416 1419 1421 1422 1425 1432 1442 1450 1455 1462 1468 1472 1480 1485 1489 1492 1495 1498
1373 1371 1369 1368 1365 1363 1362 1363 1364 1364 1365 1370 1375 1375 1384 1385 1387 1392 1397 1398 1399 1400 1402 1404 1406 1407 1410 1412 1413 1419 1422 1429 1436 1446 1451 1460 1465 1472 1480 1484 1487 1491 1494
Wind_Speed
28 27 27 26 25 23 21 21 24 24 23 20 20 18 16 17 18 20 16 16 13 9 7 5 7 9 10 12 12 14 15 16 15 13 14 14 14 14 15 14 13 13 13
30 30 29 28 27 25 23 22 23 23 22 21 20 19 17 16 11 17 17 19 16 11 9 7 6 10 13 13 14 15 16 16 16 15 13 14 14 14 14 14 14 13 12
32 32 31 30 29 26 25 25 24 23 22 21 20 20 20 18 15 11 14 19 18 14 10 8 7 10 12 15 16 16 15 17 16 15 14 14 14 15 14 13 12 12 11
32 32 32 32 30 29 27 27 26 26 24 23 22 22 22 20 17 18 18 20 21 17 13 10 10 12 14 14 17 17 17 17 17 16 14 14 14 14 13 13 12 11 10
33 31 31 30 31 31 30 29 27 28 27 26 24 23 23 23 18 20 20 21 23 19 15 12 12 15 16 16 17 18 17 18 18 15 15 15 15 15 14 13 11 10 9
31 31 30 30 28 31 32 31 30 29 29 25 25 25 23 25 24 23 26 25 24 20 16 14 14 16 18 18 17 18 19 20 18 16 15 16 16 14 14 13 12 10 9
23 25 29 30 30 30 33 31 30 32 30 25 26 25 24 24 24 24 28 25 26 23 20 16 16 17 20 19 17 19 20 20 19 15 17 19 16 15 14 13 12 10 8
21 22 24 27 29 30 32 33 35 34 30 29 31 25 18 20 26 24 24 27 29 26 24 20 19 20 18 21 21 21 21 21 19 19 20 17 17 16 14 13 11 10 7
29 24 25 27 27 29 34 37 37 32 31 32 34 25 11 14 23 28 28 28 28 30 27 25 23 22 22 22 23 24 23 21 21 20 20 18 17 16 14 13 12 9 7
30 27 27 28 29 30 35 37 36 36 35 32 33 38 29 19 15 12 28 31 30 32 31 29 27 25 25 24 25 24 27 25 22 20 18 17 17 16 15 13 10 10 10
28 28 30 33 33 34 35 36 34 37 38 35 35 38 40 34 26 20 19 29 36 37 38 35 30 27 27 28 27 26 27 26 25 22 17 18 17 16 13 12 13 13 12
25 26 28 32 35 37 37 37 34 33 35 37 38 40 41 41 36 31 26 25 30 43 42 41 36 32 29 30 29 28 27 27 25 24 21 19 18 16 17 17 15 16 14
28 31 31 30 33 34 35 36 37 35 34 41 43 41 39 38 39 37 35 30 27 34 37 44 39 35 31 30 31 30 28 28 26 25 25 24 23 22 21 19 20 17 15
29 29 27 29 29 30 32 33 35 35 36 36 37 38 40 37 36 36 36 34 25 29 38 42 44 40 36 32 31 31 30 30 29 29 29 28 26 25 24 23 21 20 21
18 23 23 25 28 29 32 33 35 34 34 35 36 38 39 35 36 37 36 36 37 23 37 39 42 45 39 36 34 34 32 32 32 32 31 30 29 27 25 23 23 23 23
16 20 21 23 25 27 27 30 33 32 33 33 33 35 36 35 37 35 35 36 39 38 32 41 41 48 45 42 38 37 35 36 34 32 32 31 29 27 27 26 27 26 24
16 18 19 23 27 25 28 30 31 33 34 34 36 37 36 33 35 35 36 35 35 43 40 33 44 47 47 46 44 41 37 40 38 34 32 31 31 31 29 29 30 28 28
14 18 18 21 22 25 28 31 34 33 35 37 38 36 36 34 35 34 35 35 35 40 45 44 46 47 51 49 49 44 42 41 40 38 36 34 34 33 33 35 33 28 26
13 14 20 20 17 23 22 26 30 27 32 36 38 36 36 34 30 31 35 36 36 39 43 49 48 50 54 52 52 47 46 44 42 39 39 38 38 39 39 38 34 27 25
16 16 16 22 22 20 24 24 28 32 27 30 34 35 34 32 34 35 35 32 33 30 42 52 52 50 51 53 49 52 47 44 45 44 43 41 41 42 42 38 31 26 24
16 18 19 18 21 22 21 24 26 32 33 30 29 30 33 34 34 33 35 36 35 32 35 45 48 50 54 55 55 53 51 49 47 46 44 43 43 41 36 30 25 21 21
17 18 18 19 20 23 22 23 26 28 36 35 32 31 34 35 36 35 33 30 29 32 33 47 53 59 57 57 58 55 53 52 46 46 43 42 39 35 30 25 23 23 20
20 19 18 17 18 22 26 23 26 27 33 39 36 32 29 30 28 29 29 27 26 30 34 37 51 57 57 58 59 59 55 55 58 52 46 40 36 31 28 26 24 22 18
21 22 20 18 19 18 23 26 25 28 33 31 36 32 29 27 25 24 24 26 25 30 31 36 48 51 53 57 62 64 56 58 55 47 47 42 39 34 30 26 22 19 19
21 20 20 20 19 19 20 25 28 27 33 30 25 29 28 26 24 24 26 27 25 26 28 34 37 42 48 54 62 63 55 59 51 44 44 40 40 34 29 26 21 19 18
23 22 22 20 20 21 21 20 29 28 33 32 32 33 33 28 26 26 25 27 27 26 27 31 39 46 50 55 58 60 55 59 63 42 47 43 35 37 24 26 22 19 16
Wind_Direction
217 215 216 216 216 217 211 206 204 207 210 220 224 224 223 225 239 225 225 217 215 219 222 210 201 210 220 209 194 180 169 167 172 166 164 163 153 146 143 140 134 130 130
223 221 220 221 220 220 218 216 215 214 220 223 230 231 230 242 248 213 216 216 221 219 217 237 206 214 215 212 188 187 178 177 174 175 172 161 155 153 150 148 145 143 138
228 226 224 224 225 224 222 222 221 220 223 225 231 226 228 231 227 207 224 226 223 222 223 228 222 215 212 201 196 192 184 177 178 180 170 166 163 161 158 155 153 151 147
233 233 231 228 227 227 227 228 225 223 226 227 230 229 230 234 230 238 221 226 226 225 234 221 224 215 215 209 198 196 190 179 184 186 178 173 174 172 165 166 164 163 164
234 235 236 234 229 230 231 232 231 226 226 224 229 233 240 235 238 238 238 227 227 227 232 234 234 217 209 209 209 200 195 189 196 191 181 178 185 175 176 175 176 175 176
238 238 239 238 234 231 234 233 233 231 229 224 231 232 241 239 239 241 245 232 226 228 225 232 235 226 205 207 215 203 200 199 198 193 186 189 189 184 186 186 186 187 187
234 240 240 238 235 233 235 236 236 233 228 220 229 229 237 244 245 244 239 226 226 226 225 229 235 227 209 207 211 203 208 205 199 195 193 198 190 193 193 191 193 191 194
233 234 234 236 238 237 234 234 235 232 226 224 222 226 222 232 237 243 234 231 227 227 226 227 230 225 224 206 207 210 210 208 200 202 201 194 199 199 195 194 193 199 209
233 231 230 230 234 237 238 238 238 235 227 231 223 214 201 217 231 238 232 225 225 223 226 229 231 228 227 221 213 213 205 208 204 208 202 199 203 201 195 196 203 212 229
240 237 238 238 240 240 244 247 250 241 233 229 224 222 224 229 202 214 228 227 229 228 227 231 232 230 227 226 224 221 205 207 208 208 206 203 204 197 198 203 215 223 236
245 243 243 244 245 245 246 247 250 243 237 229 229 227 223 228 230 236 218 228 228 233 231 231 232 231 228 227 226 220 212 209 210 211 207 207 202 203 207 219 218 236 246
239 239 246 249 246 246 246 247 248 245 243 230 234 234 230 225 224 226 229 240 238 232 232 228 229 228 230 228 226 222 217 217 216 209 207 207 208 215 221 220 232 241 246
240 242 246 249 247 245 247 248 245 243 244 235 236 234 234 237 239 242 233 233 227 230 232 229 229 227 228 228 228 223 218 217 219 213 208 212 216 220 221 229 236 239 245
239 240 240 241 245 246 249 247 244 244 245 243 242 240 236 236 241 240 239 224 220 223 229 232 226 224 222 222 226 221 219 217 219 218 215 216 219 223 228 233 240 239 242
248 248 244 235 235 239 246 247 241 242 244 240 241 240 240 239 247 243 242 239 229 217 222 232 230 225 222 219 218 216 217 215 217 220 220 223 224 229 235 241 243 243 248
252 252 249 243 241 239 239 242 245 246 244 243 238 237 231 246 251 245 244 246 242 231 225 231 231 226 224 219 218 217 218 214 217 221 224 226 228 232 237 239 242 244 249
261 257 255 249 243 244 242 241 241 247 247 246 242 237 241 246 247 243 249 246 249 237 227 228 231 229 225 219 220 216 218 216 219 223 225 226 229 232 237 245 245 253 255
280 268 263 256 248 243 243 243 244 247 243 241 241 235 244 246 242 245 250 250 250 250 239 229 226 226 223 221 221 218 217 217 219 223 225 224 230 236 240 244 246 247 247
282 271 260 255 256 241 248 251 238 242 242 239 238 243 246 238 238 242 250 252 257 257 245 234 223 226 220 212 213 217 216 215 216 221 223 228 231 235 240 241 245 243 248
290 280 277 260 253 254 248 249 245 240 241 242 241 244 242 237 244 247 253 251 252 249 232 227 230 227 212 208 209 214 208 210 212 212 219 224 229 232 234 239 237 241 250
293 286 284 284 263 255 258 249 244 244 236 238 237 242 242 243 245 245 252 251 250 253 250 236 225 220 209 202 204 204 210 206 206 212 211 218 223 228 229 229 231 241 259
303 292 281 288 279 261 255 265 256 249 244 237 240 241 241 243 243 248 247 247 249 248 250 235 228 225 218 210 205 206 208 203 197 204 206 211 217 221 223 223 227 234 238
313 303 295 285 284 268 255 257 256 255 251 246 240 247 242 237 241 244 242 243 238 247 255 253 240 232 226 219 213 208 210 216 212 210 209 209 213 212 212 219 224 233 237
319 313 304 296 288 279 268 251 251 261 251 251 243 247 244 242 238 237 243 242 241 236 249 253 248 246 246 234 228 223 212 212 210 208 208 202 204 208 214 220 227 229 227
320 316 310 304 295 284 275 253 248 252 252 250 240 245 244 239 234 241 239 246 242 238 248 256 251 251 256 249 233 215 209 208 204 206 206 208 203 203 209 220 224 224 213
315 312 311 308 302 290 283 270 247 247 244 236 232 238 239 242 235 241 244 244 243 242 249 253 248 244 244 241 247 229 223 215 211 200 204 202 204 206 199 212 217 211 197